| time (UTC) | temp F | wind direction | speed knots | gust knots | rain 1hr in | rain 24hr in | rain mn in | humidity % | barometer mb |
| 20260504014539 | 45 | 261 | 0.0 | 1.7 | 0.00 | 0.00 | 0.00 | 67 | 1013.0 |
| 20260504013039 | 47 | 261 | 0.0 | 0.9 | 0.00 | 0.00 | 0.00 | 62 | 1012.9 |
| 20260504011535 | 49 | 261 | 0.0 | 2.6 | 0.00 | 0.00 | 0.00 | 60 | 1012.8 |
| 20260504010035 | 50 | 211 | 0.0 | 2.6 | 0.00 | 0.00 | 0.00 | 57 | 1012.8 |
| 20260504004534 | 51 | 274 | 0.0 | 2.6 | 0.00 | 0.00 | 0.00 | 51 | 1012.7 |
| 20260504003041 | 52 | 26 | 0.0 | 4.3 | 0.00 | 0.00 | 0.00 | 47 | 1012.7 |
| 20260504001533 | 53 | 215 | 0.0 | 2.6 | 0.00 | 0.00 | 0.00 | 45 | 1012.6 |
| 20260504000032 | 53 | 140 | 0.0 | 3.5 | 0.00 | 0.00 | 0.00 | 48 | 1012.6 |
| 20260503234533 | 54 | 167 | 0.9 | 4.3 | 0.00 | 0.00 | 0.00 | 45 | 1012.5 |
| 20260503233037 | 54 | 234 | 0.9 | 2.6 | 0.00 | 0.00 | 0.00 | 41 | 1012.5 |
| 20260503231531 | 54 | 20 | 0.9 | 7.8 | 0.00 | 0.00 | 0.00 | 40 | 1012.6 |
| 20260503230031 | 54 | 42 | 2.6 | 13.9 | 0.00 | 0.00 | 0.00 | 40 | 1012.5 |
| 20260503224530 | 54 | 240 | 0.9 | 7.0 | 0.00 | 0.00 | 0.00 | 41 | 1012.4 |
| 20260503223030 | 55 | 202 | 5.2 | 10.4 | 0.00 | 0.00 | 0.00 | 40 | 1012.5 |
| 20260503221527 | 55 | 84 | 4.3 | 13.9 | 0.00 | 0.00 | 0.00 | 40 | 1012.6 |
| 20260503220028 | 55 | 229 | 3.5 | 12.2 | 0.00 | 0.00 | 0.00 | 39 | 1012.4 |
| 20260503214527 | 55 | 249 | 2.6 | 13.0 | 0.00 | 0.00 | 0.00 | 39 | 1012.5 |
| 20260503213026 | 55 | 105 | 1.7 | 8.7 | 0.00 | 0.00 | 0.00 | 40 | 1012.5 |
| 20260503211527 | 56 | 342 | 2.6 | 12.2 | 0.00 | 0.00 | 0.00 | 37 | 1012.6 |
| 20260503210024 | 55 | 109 | 1.7 | 8.7 | 0.00 | 0.00 | 0.00 | 38 | 1012.4 |
| 20260503204522 | 55 | 303 | 4.3 | 13.0 | 0.00 | 0.00 | 0.00 | 37 | 1012.6 |
| 20260503203029 | 54 | 56 | 2.6 | 10.4 | 0.00 | 0.00 | 0.00 | 40 | 1012.8 |
| 20260503201520 | 54 | 309 | 1.7 | 10.4 | 0.00 | 0.00 | 0.00 | 40 | 1012.9 |
| 20260503200018 | 54 | 235 | 3.5 | 9.6 | 0.00 | 0.00 | 0.00 | 40 | 1013.1 |
| 20260503194517 | 55 | 103 | 1.7 | 12.2 | 0.00 | 0.00 | 0.00 | 40 | 1013.3 |
| 20260503193014 | 54 | 188 | 4.3 | 13.9 | 0.00 | 0.00 | 0.00 | 42 | 1013.5 |
| 20260503191513 | 55 | 304 | 3.5 | 13.0 | 0.00 | 0.00 | 0.00 | 38 | 1013.6 |
| 20260503190013 | 55 | 337 | 8.7 | 19.1 | 0.00 | 0.00 | 0.00 | 38 | 1013.7 |
| 20260503184516 | 55 | 266 | 3.5 | 11.3 | 0.00 | 0.00 | 0.00 | 39 | 1013.9 |
| 20260503183007 | 54 | 323 | 3.5 | 12.2 | 0.00 | 0.00 | 0.00 | 40 | 1014.2 |
| 20260503181505 | 53 | 25 | 2.6 | 15.6 | 0.00 | 0.00 | 0.00 | 44 | 1014.4 |
| 20260503180003 | 53 | 341 | 3.5 | 14.8 | 0.00 | 0.00 | 0.00 | 40 | 1014.4 |
| 20260503174601 | 53 | 355 | 3.5 | 13.0 | 0.00 | 0.00 | 0.00 | 44 | 1014.8 |
| 20260503173059 | 52 | 313 | 2.6 | 12.2 | 0.00 | 0.00 | 0.00 | 41 | 1014.7 |
| 20260503171610 | 51 | 306 | 6.1 | 11.3 | 0.00 | 0.00 | 0.00 | 43 | 1015.0 |
| 20260503081539 | 29 | 320 | 0.0 | 0.0 | 0.00 | 0.00 | 0.00 | 86 | 1016.3 |
| 20260503071542 | 31 | 320 | 0.0 | 0.9 | 0.00 | 0.00 | 0.00 | 84 | 1016.0 |
| 20260503054521 | 35 | 13 | 0.0 | 0.9 | 0.00 | 0.00 | 0.00 | 80 | 1016.2 |
| 20260503053011 | 35 | 13 | 0.0 | 0.0 | 0.00 | 0.00 | 0.00 | 78 | 1016.3 |
| 20260503051507 | 35 | 13 | 0.0 | 0.9 | 0.00 | 0.00 | 0.00 | 78 | 1016.4 |
| 20260503050005 | 35 | 13 | 0.0 | 0.9 | 0.00 | 0.00 | 0.00 | 77 | 1016.5 |
| 20260503044506 | 35 | 13 | 0.0 | 0.0 | 0.00 | 0.00 | 0.00 | 76 | 1016.6 |
| 20260503043059 | 35 | 13 | 0.0 | 1.7 | 0.00 | 0.00 | 0.00 | 75 | 1016.7 |
| 20260503041604 | 35 | 304 | 0.0 | 5.2 | 0.00 | 0.00 | 0.00 | 75 | 1016.7 |
| 20260503040054 | 35 | 296 | 0.0 | 1.7 | 0.00 | 0.00 | 0.00 | 74 | 1016.8 |
| 20260503034553 | 36 | 340 | 1.7 | 4.3 | 0.00 | 0.00 | 0.00 | 73 | 1016.8 |
| 20260503033053 | 36 | 355 | 0.0 | 1.7 | 0.00 | 0.00 | 0.00 | 73 | 1016.9 |
| 20260503031552 | 36 | 307 | 0.9 | 7.8 | 0.00 | 0.00 | 0.00 | 72 | 1016.8 |
| 20260503030056 | 36 | 294 | 0.0 | 2.6 | 0.00 | 0.00 | 0.00 | 71 | 1016.9 |
| 20260503024551 | 36 | 282 | 0.9 | 3.5 | 0.00 | 0.00 | 0.00 | 71 | 1017.0 |
| 20260503023059 | 36 | 298 | 0.9 | 3.5 | 0.00 | 0.00 | 0.00 | 70 | 1017.1 |
| 20260503021556 | 37 | 333 | 0.9 | 2.6 | 0.00 | 0.00 | 0.00 | 69 | 1017.1 |
| 20260503020054 | 37 | 5 | 0.9 | 4.3 | 0.00 | 0.00 | 0.00 | 69 | 1017.1 |